IV3CGM-1 Weather Reports


Display with metric or nautical units.
time (UTC)temp
F
wind
direction
speed
MPH
gust
MPH
rain 1hr
in
rain 24hr
in
rain mn
in
humidity
%
barometer
mb
20260506185048 46 198 8.0 14.0 0.00 0.00 0.00 99
20260506184125 47 204 13.0 13.0 0.00 0.00 0.00 99
20260506183200 46 162 8.0 12.0 0.00 0.00 0.00 99
20260506182225 46 204 11.0 12.0 0.00 0.00 0.00 99
20260506181247 47 210 6.0 11.0 0.00 0.00 0.00 99
20260506180311 47 193 9.0 9.0 0.00 0.00 0.00 99
20260506175347 47 162 7.0 9.0 0.00 0.00 0.00 99
20260506174422 47 167 9.0 9.0 0.00 0.00 0.00 99
20260506173423 47 193 9.0 12.0 0.00 0.00 0.00 99
20260506172413 47 162 9.0 12.0 0.00 0.00 0.00 99
20260506171249 47 204 5.0 9.0 0.00 0.00 0.00 99
20260506170326 47 193 5.0 13.0 0.00 0.00 0.00 99
20260506165136 47 186 7.0 13.0 0.00 0.00 0.00 99
20260506164158 48 156 12.0 13.0 0.00 0.00 0.00 99
20260506163212 47 204 5.0 11.0 0.00 0.00 0.00 99
20260506162223 47 167 9.0 11.0 0.00 0.00 0.00 99
20260506161158 47 174 7.0 7.0 0.00 0.00 0.00 99
20260506160225 48 222 4.0 14.0 0.00 0.00 0.00 99
20260506155222 48 162 9.0 16.0 0.00 0.00 0.00 99
20260506154214 48 174 15.0 16.0 0.00 0.00 0.00 99
20260506153147 48 198 11.0 17.0 0.00 0.00 0.00 99
20260506152110 48 156 12.0 17.0 0.00 0.00 0.00 99
20260506151148 49 127 15.0 17.0 0.00 0.00 0.00 99
20260506150112 48 162 5.0 14.0 0.00 0.00 0.00 99
20260506145113 48 180 13.0 14.0 0.00 0.00 0.00 99
20260506144035 48 162 11.0 13.0 0.00 0.00 0.00 99
20260506143000 48 150 6.0 13.0 0.00 0.00 0.00 99
20260506142037 48 156 9.0 13.0 0.00 0.00 0.00 99
20260506140100 47 162 8.0 15.0 0.00 0.00 0.00 99
20260506134901 47 132 6.0 15.0 0.00 0.00 0.00 99
20260506133550 47 228 7.0 15.0 0.00 0.00 0.00 99
20260506131934 47 156 13.0 15.0 0.00 0.00 0.00 99
20260506130925 47 210 9.0 15.0 0.00 0.00 0.00 99
20260506130001 48 132 13.0 15.0 0.00 0.00 0.00 99
20260506124913 47 217 7.0 16.0 0.00 0.00 0.00 99
20260506123949 47 156 11.0 15.0 0.00 0.00 0.00 99
20260506123000 47 143 6.0 15.0 0.00 0.00 0.00 99
20260506122024 47 167 7.0 16.0 0.00 0.00 0.00 99
20260506120949 47 193 5.0 16.0 0.00 0.00 0.00 99
20260506115848 47 198 12.0 16.0 0.00 0.00 0.00 99
20260506114748 47 167 11.0 19.0 0.00 0.00 0.00 99
20260506113800 47 193 13.0 22.0 0.00 0.00 0.00 99
20260506112836 47 193 5.0 22.0 0.00 0.00 0.00 99
20260506111824 47 186 9.0 17.0 0.00 0.00 0.00 99
20260506105758 47 198 17.0 20.0 0.00 0.00 0.00 99
20260506104724 46 217 11.0 16.0 0.00 0.00 0.00 99
20260506103712 47 180 7.0 16.0 0.00 0.00 0.00 99
20260506102711 47 204 8.0 14.0 0.00 0.00 0.00 99
20260506101637 47 204 9.0 9.0 0.00 0.00 0.00 99
20260506100559 48 156 8.0 11.0 0.00 0.00 0.00 99
20260506095559 48 162 4.0 16.0 0.00 0.00 0.00 99
20260506094535 48 167 12.0 21.0 0.00 0.00 0.00 99
20260506093547 48 120 15.0 21.0 0.00 0.00 0.00 99
20260506092510 48 162 8.0 20.0 0.00 0.00 0.00 99
20260506091511 48 108 13.0 14.0 0.00 0.00 0.00 99
20260506090548 48 127 8.0 9.0 0.00 0.00 0.00 99
20260506085534 48 127 6.0 11.0 0.00 0.00 0.00 99
20260506084533 48 156 8.0 9.0 0.00 0.00 0.00 99
20260506083511 48 108 6.0 9.0 0.00 0.00 0.00 99
20260506082533 48 114 6.0 7.0 0.00 0.00 0.00 99
20260506081534 48 127 7.0 9.0 0.00 0.00 0.00 99
20260506080533 48 127 9.0 9.0 0.00 0.00 0.00 99
20260506073508 47 162 5.0 6.0 0.00 0.00 0.00 99
20260506072544 47 6 0.0 5.0 0.00 0.00 0.00 99
20260506071620 46 62 4.0 9.0 0.00 0.00 0.00 99
20260506070621 46 233 5.0 8.0 0.00 0.00 0.00 99
20260506061546 47 108 2.0 3.0 0.00 0.00 0.00 99
20260506060556 47 288 2.0 4.0 0.00 0.00 0.00 99
20260506050707 46 330 0.0 2.0 0.00 0.00 0.00 99
20260506044722 46 315 4.0 6.0 0.00 0.00 0.00 99
20260506043642 46 315 6.0 7.0 0.00 0.00 0.00 99
20260506042644 46 318 6.0 7.0 0.00 0.00 0.00 99
20260506041555 46 48 0.0 2.0 0.00 0.00 0.00 99
20260506040543 46 18 0.0 2.0 0.00 0.00 0.00 99
20260506035555 46 138 0.0 2.0 0.00 0.00 0.00 99
20260506034610 46 138 0.0 0.0 0.00 0.00 0.00 99
20260506033620 46 288 0.0 2.0 0.00 0.00 0.00 99
20260506032644 46 294 2.0 5.0 0.00 0.00 0.00 99
20260506031708 46 300 4.0 5.0 0.00 0.00 0.00 99
20260506030642 46 281 4.0 4.0 0.00 0.00 0.00 99
20260506025641 46 48 2.0 2.0 0.00 0.00 0.00 99
20260506024632 46 63 0.0 5.0 0.00 0.00 0.00 99
20260506023621 46 63 2.0 5.0 0.00 0.00 0.00 99
20260506022645 46 167 0.0 0.0 0.00 0.00 0.00 99
20260506021658 46 186 0.0 0.0 0.00 0.00 0.00 99
20260506020642 46 300 0.0 4.0 0.00 0.00 0.00 99
20260506015621 46 312 4.0 5.0 0.00 0.00 0.00 99
20260506014658 46 264 2.0 3.0 0.00 0.00 0.00 99
20260506013707 46 217 3.0 6.0 0.00 0.00 0.00 99
20260506012729 46 167 4.0 9.0 0.00 0.00 0.00 99
20260506011709 46 167 5.0 7.0 0.00 0.00 0.00 99
20260506010655 46 167 5.0 9.0 0.00 0.00 0.00 99
20260506005644 46 162 6.0 7.0 0.00 0.00 0.00 99
20260506004642 46 167 3.0 4.0 0.00 0.00 0.00 99
20260506003619 46 222 4.0 7.0 0.00 0.00 0.00 99
20260506002616 46 210 4.0 7.0 0.00 0.00 0.00 99
20260506001657 46 233 6.0 8.0 0.00 0.00 0.00 99
20260506000643 47 180 4.0 8.0 0.00 0.00 0.00 99
20260505235706 47 167 7.0 8.0 0.00 0.00 0.00 99
20260505234616 47 198 5.0 12.0 0.00 0.00 0.00 99
20260505233618 47 180 5.0 11.0 0.00 0.00 0.00 99
20260505232545 47 174 6.0 11.0 0.00 0.00 0.00 99
20260505231507 47 167 6.0 8.0 0.00 0.00 0.00 99
20260505230529 47 138 6.0 9.0 0.00 0.00 0.00 99
20260505225541 47 217 6.0 13.0 0.00 0.00 0.00 99
20260505224618 47 174 12.0 13.0 0.00 0.00 0.00 99
20260505223555 47 174 7.0 13.0 0.00 0.00 0.00 99
20260505222618 47 162 8.0 12.0 0.00 0.00 0.00 99
20260505221552 47 193 6.0 9.0 0.00 0.00 0.00 99
20260505220609 47 186 7.0 13.0 0.00 0.00 0.00 99
20260505215643 47 150 2.0 7.0 0.00 0.00 0.00 99
20260505214643 47 156 6.0 8.0 0.00 0.00 0.00 99
20260505213640 47 180 8.0 11.0 0.00 0.00 0.00 99
20260505212655 47 193 6.0 6.0 0.00 0.00 0.00 99
20260505211708 47 180 5.0 7.0 0.00 0.00 0.00 99
20260505210705 46 167 6.0 7.0 0.00 0.00 0.00 99
20260505205707 47 186 5.0 9.0 0.00 0.00 0.00 99
20260505204707 46 193 2.0 7.0 0.00 0.00 0.00 99
20260505203656 46 222 4.0 6.0 0.00 0.00 0.00 99
20260505202616 46 210 5.0 6.0 0.00 0.00 0.00 99
20260505201640 47 228 5.0 5.0 0.00 0.00 0.00 99
20260505200718 47 264 3.0 5.0 0.00 0.00 0.00 99
20260505195640 46 222 4.0 5.0 0.00 0.00 0.00 99
20260505194705 46 233 2.0 6.0 0.00 0.00 0.00 99
20260505193742 46 270 5.0 6.0 0.00 0.00 0.00 99
20260505192729 46 257 4.0 5.0 0.00 0.00 0.00 99
20260505191754 46 294 5.0 7.0 0.00 0.00 0.00 99
20260505190818 46 294 4.0 4.0 0.00 0.00 0.00 99
20260505185841 46 300 2.0 5.0 0.00 0.00 0.00 99